Location: Larrial
(48.2758°N, 4.5331°W)
Time: 23:48:46
(UTC+00:00)

AAUSAT CUBESAT 2 - Pass Details

Date: 07 December 2021
Orbit: 571 x 586 km, 97.5° (Epoch: 19 January)

Event Time Altitude Azimuth Distance (km) Brightness Sun altitude
Rises 04:06:01 0° 34° (NE) 2,801 ? -37.0°
Reaches altitude 10° 04:10:01 10° 73° (ENE) 1,898 ? -36.4°
Maximum altitude 04:10:58 11° 87° (E) 1,854 ? -36.2°
Drops below altitude 10° 04:11:54 10° 100° (E) 1,896 ? -36.1°
Sets 04:15:54 0° 139° (SE) 2,792 ? -35.4°
